Location: Caltech
(34.1382°N, 118.1253°W)
Time: 21:51:55
(UTC-08:00)

OAO 2 Rocket - Visible Passes

Search period start: 17 January 2017 00:00
Search period end: 27 January 2017 00:00
Orbit: 677 x 746 km, 35.0° (Epoch: 17 January)

Date Brightness Start Highest point End Pass type
(mag) Time Alt. Az. Time Alt. Az. Time Alt. Az.
17 Jan 3.5 04:43:00 65° ENE 04:43:00 65° ENE 04:47:13 10° E visible
17 Jan 3.3 06:22:12 10° W 06:27:08 86° S 06:32:06 10° ESE visible
18 Jan 5.9 03:48:32 16° E 03:48:32 16° E 03:49:33 10° E visible
18 Jan 3.2 05:27:30 37° W 05:29:29 84° N 05:34:25 10° E visible
19 Jan 4.0 04:33:02 50° E 04:33:02 50° E 04:36:43 10° E visible
19 Jan 3.4 06:12:00 12° W 06:16:34 66° SSW 06:21:27 10° ESE visible
20 Jan 6.2 03:38:34 13° E 03:38:34 13° E 03:39:02 10° E visible
20 Jan 3.2 05:17:32 47° W 05:18:57 82° SSW 05:23:52 10° ESE visible
21 Jan 4.4 04:23:05 40° E 04:23:05 40° E 04:26:14 10° E visible
21 Jan 3.9 06:02:03 14° W 06:05:56 45° SSW 06:10:37 10° SE visible
22 Jan 3.3 05:07:37 54° WSW 05:08:22 61° SSW 05:13:12 10° ESE visible
23 Jan 5.0 04:13:13 30° ESE 04:13:13 30° ESE 04:15:39 10° ESE visible
23 Jan 4.5 05:52:11 16° WSW 05:55:12 29° SSW 05:59:25 10° SSE visible
24 Jan 3.9 04:57:49 41° SSW 04:57:49 41° SSW 05:02:18 10° SE visible
25 Jan 5.5 04:03:30 19° SE 04:03:30 19° SE 04:04:58 10° ESE visible
25 Jan 5.0 05:42:29 14° WSW 05:44:23 17° SSW 05:47:37 10° S visible
26 Jan 4.8 04:48:12 23° S 04:48:12 23° S 04:51:00 10° SSE visible
